GW5072 Weather Reports


Display with metric or nautical units.
time (UTC)temp
F
wind
direction
speed
MPH
gust
MPH
rain 1hr
in
rain 24hr
in
rain mn
in
humidity
%
barometer
mb
20260504233003 78 179 0.0 3.0 0.00 0.00 0.00 68 1010.6
20260504232506 78 115 0.0 4.0 0.00 0.00 0.00 67 1010.7
20260504232002 78 122 1.0 4.0 0.00 0.00 0.00 66 1010.7
20260504231503 79 184 0.0 4.0 0.00 0.00 0.00 67 1010.7
20260504231005 79 109 0.0 3.0 0.00 0.00 0.00 66 1010.8
20260504230502 79 167 0.0 6.0 0.00 0.00 0.00 66 1010.9
20260504230020 79 119 1.0 6.0 0.00 0.00 0.00 65 1010.9
20260504225504 79 102 1.0 4.0 0.00 0.00 0.00 65 1011.1
20260504225001 79 104 2.0 4.0 0.00 0.00 0.00 65 1011.2
20260504224515 80 85 1.0 4.0 0.00 0.00 0.00 64 1011.0
20260504224003 80 112 1.0 5.0 0.00 0.00 0.00 64 1011.0
20260504223503 80 122 1.0 5.0 0.00 0.00 0.00 64 1011.0
20260504223013 80 103 1.0 4.0 0.00 0.00 0.00 63 1011.2
20260504222504 80 71 1.0 5.0 0.00 0.00 0.00 64 1011.1
20260504222005 80 210 0.0 5.0 0.00 0.00 0.00 63 1011.2
20260504221510 80 109 1.0 5.0 0.00 0.00 0.00 64 1011.2
20260504221002 80 218 0.0 10.0 0.00 0.00 0.00 63 1011.3
20260504220506 80 210 0.0 10.0 0.00 0.00 0.00 63 1011.5
20260504220009 80 205 0.0 6.0 0.00 0.00 0.00 62 1011.4
20260504215502 80 120 2.0 6.0 0.00 0.00 0.00 60 1011.4
20260504215007 81 136 1.0 4.0 0.00 0.00 0.00 61 1011.5
20260504214504 82 98 1.0 5.0 0.00 0.00 0.00 60 1011.5
20260504214007 82 83 2.0 5.0 0.00 0.00 0.00 61 1011.6
20260504213503 82 188 0.0 3.0 0.00 0.00 0.00 61 1011.8
20260504213004 83 102 0.0 3.0 0.00 0.00 0.00 59 1011.7
20260504212506 83 122 0.0 3.0 0.00 0.00 0.00 58 1011.8
20260504212003 83 212 0.0 6.0 0.00 0.00 0.00 59 1011.9
20260504211503 82 121 1.0 6.0 0.00 0.00 0.00 58 1011.9
20260504211006 82 259 0.0 5.0 0.00 0.00 0.00 62 1012.0
20260504210503 82 239 1.0 4.0 0.00 0.00 0.00 59 1012.2
20260504210027 82 227 1.0 5.0 0.00 0.00 0.00 59 1012.1
20260504205506 83 105 1.0 5.0 0.00 0.00 0.00 59 1012.1
20260504205004 82 115 1.0 5.0 0.00 0.00 0.00 59 1012.2
20260504204519 81 186 0.0 3.0 0.00 0.00 0.00 60 1012.4
20260504204003 80 218 0.0 5.0 0.00 0.00 0.00 60 1012.6
20260504203510 81 120 1.0 5.0 0.00 0.00 0.00 58 1012.6
20260504203021 82 89 1.0 8.0 0.00 0.00 0.00 58 1012.7
20260504202504 82 203 0.0 8.0 0.00 0.00 0.00 63 1012.8
20260504202008 81 89 2.0 6.0 0.00 0.00 0.00 60 1012.8
20260504201515 81 226 0.0 3.0 0.00 0.00 0.00 59 1013.1
20260504201005 81 263 0.0 4.0 0.00 0.00 0.00 60 1013.2
20260504200507 81 298 1.0 5.0 0.00 0.00 0.00 60 1013.3
20260504200008 81 264 1.0 5.0 0.00 0.00 0.00 58 1013.3
20260504195508 81 209 1.0 4.0 0.00 0.00 0.00 60 1013.4
20260504195009 81 294 0.0 7.0 0.00 0.00 0.00 61 1013.5
20260504194508 81 221 1.0 7.0 0.00 0.00 0.00 58 1013.6
20260504194006 81 149 2.0 7.0 0.00 0.00 0.00 60 1013.6
20260504193509 81 204 2.0 7.0 0.00 0.00 0.00 60 1013.6
20260504193012 80 162 0.0 6.0 0.00 0.00 0.00 59 1013.7
20260504192508 80 243 1.0 9.0 0.00 0.00 0.00 59 1013.8
20260504192003 81 85 2.0 9.0 0.00 0.00 0.00 59 1013.8
20260504191526 81 116 1.0 3.0 0.00 0.00 0.00 57 1013.8
20260504191006 82 115 1.0 5.0 0.00 0.00 0.00 56 1014.0
20260504190504 82 219 1.0 5.0 0.00 0.00 0.00 58 1014.1
20260504190021 82 203 1.0 4.0 0.00 0.00 0.00 57 1014.2
20260504185503 82 212 1.0 5.0 0.00 0.00 0.00 57 1014.3
20260504185007 82 274 2.0 5.0 0.00 0.00 0.00 56 1014.2
20260504184519 81 94 0.0 8.0 0.00 0.00 0.00 58 1014.2
20260504184003 81 233 1.0 8.0 0.00 0.00 0.00 59 1014.2
20260504183512 80 125 1.0 7.0 0.00 0.00 0.00 57 1014.5
20260504183017 80 122 0.0 7.0 0.00 0.00 0.00 60 1014.5
20260504182505 81 206 1.0 7.0 0.00 0.00 0.00 56 1014.6
20260504182011 81 95 1.0 7.0 0.00 0.00 0.00 58 1014.5
20260504181513 81 148 1.0 7.0 0.00 0.00 0.00 56 1014.5
20260504181008 80 264 2.0 7.0 0.00 0.00 0.00 60 1014.6
20260504180509 80 238 1.0 5.0 0.00 0.00 0.00 62 1014.7
20260504180012 79 143 1.0 6.0 0.00 0.00 0.00 63 1014.8
20260504175508 79 184 1.0 9.0 0.00 0.00 0.00 60 1014.8
20260504175004 79 167 2.0 9.0 0.00 0.00 0.00 60 1014.9
20260504174510 79 197 1.0 5.0 0.00 0.00 0.00 60 1015.1
20260504174009 79 127 1.0 5.0 0.00 0.00 0.00 59 1015.0
20260504173506 79 163 1.0 6.0 0.00 0.00 0.00 59 1015.0
20260504173026 78 143 0.0 8.0 0.00 0.00 0.00 63 1015.2
20260504172505 78 216 2.0 8.0 0.00 0.00 0.00 61 1015.3
20260504172004 78 182 1.0 5.0 0.00 0.00 0.00 61 1015.2
20260504171523 78 129 1.0 4.0 0.00 0.00 0.00 62 1015.3
20260504171009 77 75 1.0 7.0 0.00 0.00 0.00 63 1015.4
20260504170505 77 34 2.0 7.0 0.00 0.00 0.00 61 1015.5
20260504151005 71 194 1.0 7.0 0.00 0.00 0.00 71 1016.3
20260504150504 71 238 1.0 5.0 0.00 0.00 0.00 72 1016.3
20260504141003 66 185 0.0 4.0 0.00 0.00 0.00 80 1016.3
20260504140502 65 216 0.0 4.0 0.00 0.00 0.00 79 1016.3
20260504130504 58 91 0.0 0.0 0.00 0.00 0.00 92 1016.1
20260504110506 56 91 0.0 0.0 0.00 0.00 0.00 91 1015.5
20260504100510 56 91 0.0 0.0 0.00 0.00 0.00 89 1016.0
20260504082007 57 91 0.0 0.0 0.00 0.00 0.00 87 1016.5
20260504081519 57 91 0.0 0.0 0.00 0.00 0.00 87 1016.6
20260504081002 58 91 0.0 0.0 0.00 0.00 0.00 86 1016.5
20260504080506 58 91 0.0 0.0 0.00 0.00 0.00 86 1016.6
20260504050511 58 91 0.0 0.0 0.00 0.00 0.00 84 1018.7
20260504045507 59 91 0.0 0.0 0.00 0.00 0.00 83 1018.6
20260504045007 59 91 0.0 0.0 0.00 0.00 0.00 83 1018.6
20260504044524 59 91 0.0 0.0 0.00 0.00 0.00 83 1018.7
20260504044006 59 91 0.0 0.0 0.00 0.00 0.00 82 1018.7
20260504043507 59 91 0.0 0.0 0.00 0.00 0.00 82 1018.9
20260504043025 59 91 0.0 0.0 0.00 0.00 0.00 80 1018.8
20260504042510 60 91 0.0 0.0 0.00 0.00 0.00 81 1018.7
20260504042011 60 91 0.0 0.0 0.00 0.00 0.00 80 1018.8
20260504041520 60 91 0.0 0.0 0.00 0.00 0.00 80 1018.7
20260504041010 60 91 0.0 0.0 0.00 0.00 0.00 79 1018.8
20260504040507 60 91 0.0 0.0 0.00 0.00 0.00 78 1018.9
20260504040019 61 91 0.0 0.0 0.00 0.00 0.00 77 1018.8
20260504035511 61 91 0.0 0.0 0.00 0.00 0.00 78 1018.8
20260504035010 61 91 0.0 0.0 0.00 0.00 0.00 78 1018.9
20260504034528 61 91 0.0 0.0 0.00 0.00 0.00 78 1018.7
20260504034014 61 91 0.0 1.0 0.00 0.00 0.00 77 1018.8
20260504033508 61 91 0.0 1.0 0.00 0.00 0.00 79 1018.8
20260504033026 61 91 0.0 0.0 0.00 0.00 0.00 77 1018.7
20260504032510 61 91 0.0 0.0 0.00 0.00 0.00 76 1018.8
20260504032007 62 91 0.0 0.0 0.00 0.00 0.00 77 1018.7
20260504031529 62 91 0.0 0.0 0.00 0.00 0.00 77 1018.7
20260504031012 62 91 0.0 0.0 0.00 0.00 0.00 74 1018.6
20260504030506 63 91 0.0 0.0 0.00 0.00 0.00 74 1018.6
20260504030028 63 91 0.0 0.0 0.00 0.00 0.00 74 1018.5
20260504025508 63 90 0.0 0.0 0.00 0.00 0.00 75 1018.5
20260504025005 63 90 0.0 0.0 0.00 0.00 0.00 76 1018.5
20260504024527 63 90 0.0 0.0 0.00 0.00 0.00 74 1018.4
20260504024007 63 90 0.0 0.0 0.00 0.00 0.00 72 1018.4
20260504023506 63 90 0.0 0.0 0.00 0.00 0.00 73 1018.3
20260504023024 64 90 0.0 0.0 0.00 0.00 0.00 74 1018.3
20260504022504 64 90 0.0 1.0 0.00 0.00 0.00 73 1018.3
20260504022010 64 90 0.0 1.0 0.00 0.00 0.00 73 1018.4
20260504021522 63 90 0.0 0.0 0.00 0.00 0.00 73 1018.3
20260504021008 63 90 0.0 0.0 0.00 0.00 0.00 75 1018.1
20260504020509 64 90 0.0 0.0 0.00 0.00 0.00 73 1018.0
20260504020020 64 90 0.0 0.0 0.00 0.00 0.00 73 1018.1
20260504015512 64 90 0.0 0.0 0.00 0.00 0.00 72 1018.1
20260504015016 64 90 0.0 0.0 0.00 0.00 0.00 71 1017.9
20260504014524 65 90 0.0 0.0 0.00 0.00 0.00 66 1017.8
20260504014010 65 90 0.0 0.0 0.00 0.00 0.00 67 1017.8
20260504013510 66 90 0.0 0.0 0.00 0.00 0.00 68 1017.8
20260504013015 67 90 0.0 0.0 0.00 0.00 0.00 68 1017.8
20260504012513 67 90 0.0 0.0 0.00 0.00 0.00 67 1017.8
20260504012010 67 90 0.0 1.0 0.00 0.00 0.00 65 1017.7
20260504011527 67 90 0.0 1.0 0.00 0.00 0.00 66 1017.7
20260504011010 67 101 0.0 1.0 0.00 0.00 0.00 64 1017.6
20260504010513 68 101 0.0 0.0 0.00 0.00 0.00 63 1017.6
20260504010028 68 101 0.0 0.0 0.00 0.00 0.00 60 1017.6
20260504005508 69 101 0.0 0.0 0.00 0.00 0.00 61 1017.7
20260504005008 70 101 0.0 0.0 0.00 0.00 0.00 60 1017.6
20260504004526 70 101 0.0 0.0 0.00 0.00 0.00 56 1017.7
20260504004008 71 101 0.0 0.0 0.00 0.00 0.00 56 1017.5
20260504003511 72 101 0.0 0.0 0.00 0.00 0.00 56 1017.7
20260504003026 73 101 0.0 0.0 0.00 0.00 0.00 52 1017.7
20260504002503 74 101 0.0 0.0 0.00 0.00 0.00 53 1017.7
20260504002010 75 100 0.0 0.0 0.00 0.00 0.00 52 1017.8
20260504001525 75 100 0.0 1.0 0.00 0.00 0.00 52 1017.8
20260504001006 75 100 0.0 1.0 0.00 0.00 0.00 48 1017.6
20260504000504 76 103 0.0 1.0 0.00 0.00 0.00 48 1017.7
20260504000037 76 220 0.0 1.0 0.00 0.00 0.00 46 1017.9
20260503235505 76 220 0.0 1.0 0.00 0.00 0.00 46 1017.8
20260503235003 77 220 0.0 3.0 0.00 0.00 0.00 45 1017.9
20260503234519 77 220 0.0 3.0 0.00 0.00 0.00 46 1017.8
20260503234004 77 87 0.0 1.0 0.00 0.00 0.00 46 1017.8
20260503233502 77 95 0.0 0.0 0.00 0.00 0.00 44 1017.8